QPF
0.00 0.00 0.00 0.00 0.00 0.00 0.00 0.00 0.00 0.00 0.00 0.01 0.01 0.01 0.00 0.01 0.02 0.07 0.11 0.06 0.02 0.00 0.00 0.00 0.00 0.00 0.00 0.00 0.00 0.00 0.00 0.00 0.00 0.00 0.00 0.00 0.00 0.00 0.00 0.00 0.00 0.00 0.00 0.00 0.00 0.00 0.00 0.01 0.01
0.00 0.00 0.00 0.00 0.00 0.00 0.00 0.00 0.00 0.01 0.01 0.01 0.01 0.01 0.00 0.01 0.02 0.03 0.05 0.04 0.02 0.00 0.00 0.00 0.00 0.00 0.00 0.00 0.00 0.00 0.00 0.00 0.00 0.00 0.00 0.00 0.00 0.00 0.00 0.00 0.00 0.00 0.00 0.00 0.00 0.00 0.00 0.01 0.01
0.00 0.00 0.00 0.00 0.00 0.00 0.00 0.00 0.00 0.01 0.01 0.01 0.01 0.01 0.02 0.03 0.06 0.06 0.06 0.03 0.02 0.01 0.00 0.00 0.00 0.00 0.00 0.00 0.00 0.00 0.00 0.00 0.00 0.00 0.00 0.00 0.00 0.00 0.00 0.00 0.00 0.00 0.00 0.00 0.00 0.00 0.00 0.01 0.01
0.00 0.00 0.00 0.00 0.00 0.00 0.00 0.00 0.01 0.01 0.02 0.03 0.03 0.03 0.04 0.07 0.12 0.11 0.08 0.05 0.02 0.01 0.01 0.00 0.00 0.00 0.00 0.00 0.00 0.00 0.00 0.00 0.00 0.00 0.00 0.00 0.00 0.00 0.00 0.00 0.01 0.00 0.00 0.00 0.00 0.00 0.00 0.00 0.01
0.00 0.00 0.00 0.00 0.00 0.00 0.00 0.00 0.00 0.00 0.01 0.04 0.08 0.06 0.08 0.14 0.19 0.24 0.18 0.07 0.03 0.03 0.01 0.01 0.00 0.00 0.00 0.00 0.00 0.00 0.00 0.00 0.00 0.00 0.00 0.00 0.01 0.01 0.01 0.01 0.01 0.01 0.01 0.01 0.00 0.00 0.00 0.01 0.01
0.00 0.00 0.00 0.00 0.00 0.00 0.00 0.00 0.00 0.00 0.00 0.03 0.09 0.10 0.11 0.26 0.36 0.42 0.34 0.12 0.09 0.05 0.04 0.01 0.01 0.01 0.01 0.01 0.01 0.01 0.01 0.00 0.00 0.01 0.00 0.00 0.01 0.01 0.01 0.01 0.01 0.01 0.01 0.01 0.01 0.00 0.00 0.00 0.01
0.00 0.00 0.00 0.00 0.00 0.00 0.00 0.00 0.00 0.00 0.00 0.01 0.06 0.12 0.12 0.23 0.41 0.50 0.39 0.20 0.19 0.12 0.06 0.02 0.02 0.01 0.01 0.01 0.01 0.01 0.01 0.01 0.01 0.01 0.01 0.00 0.00 0.01 0.01 0.01 0.01 0.01 0.01 0.01 0.01 0.00 0.00 0.00 0.00
0.00 0.00 0.00 0.00 0.00 0.00 0.00 0.00 0.00 0.00 0.00 0.02 0.07 0.09 0.15 0.20 0.27 0.41 0.38 0.22 0.26 0.20 0.06 0.03 0.02 0.01 0.01 0.01 0.01 0.01 0.01 0.01 0.00 0.00 0.00 0.00 0.00 0.01 0.01 0.01 0.01 0.01 0.01 0.01 0.01 0.01 0.00 0.00 0.00
0.00 0.00 0.00 0.00 0.00 0.00 0.00 0.00 0.00 0.00 0.00 0.01 0.05 0.06 0.15 0.21 0.23 0.38 0.36 0.28 0.23 0.24 0.13 0.05 0.03 0.02 0.01 0.01 0.01 0.01 0.01 0.00 0.00 0.00 0.00 0.00 0.00 0.01 0.01 0.02 0.02 0.02 0.02 0.02 0.01 0.01 0.01 0.01 0.01
0.00 0.00 0.00 0.00 0.00 0.00 0.00 0.00 0.00 0.00 0.01 0.05 0.08 0.13 0.17 0.29 0.35 0.38 0.35 0.39 0.30 0.23 0.15 0.08 0.07 0.04 0.03 0.02 0.01 0.01 0.01 0.00 0.00 0.00 0.00 0.00 0.00 0.01 0.02 0.04 0.07 0.08 0.05 0.03 0.03 0.03 0.02 0.01 0.01
0.00 0.00 0.00 0.00 0.00 0.00 0.00 0.00 0.00 0.01 0.03 0.21 0.19 0.22 0.23 0.30 0.37 0.44 0.48 0.56 0.50 0.33 0.23 0.20 0.13 0.07 0.06 0.07 0.06 0.02 0.01 0.01 0.01 0.01 0.02 0.02 0.04 0.03 0.04 0.07 0.13 0.16 0.12 0.08 0.06 0.06 0.04 0.03 0.03
0.00 0.00 0.00 0.00 0.00 0.00 0.00 0.00 0.00 0.01 0.05 0.17 0.19 0.19 0.31 0.35 0.35 0.42 0.50 0.53 0.58 0.48 0.39 0.42 0.26 0.11 0.09 0.11 0.14 0.07 0.04 0.03 0.03 0.03 0.04 0.04 0.06 0.07 0.08 0.09 0.11 0.13 0.14 0.14 0.12 0.10 0.10 0.10 0.10
0.00 0.00 0.00 0.00 0.00 0.00 0.00 0.00 0.00 0.01 0.03 0.05 0.11 0.14 0.22 0.26 0.31 0.36 0.37 0.45 0.58 0.57 0.49 0.51 0.35 0.17 0.18 0.17 0.18 0.10 0.07 0.07 0.11 0.06 0.07 0.07 0.08 0.08 0.10 0.12 0.14 0.15 0.20 0.19 0.14 0.14 0.17 0.16 0.14
0.00 0.00 0.00 0.00 0.00 0.00 0.00 0.00 0.00 0.01 0.03 0.06 0.09 0.13 0.27 0.31 0.48 0.53 0.46 0.50 0.55 0.63 0.65 0.60 0.36 0.21 0.26 0.28 0.16 0.10 0.09 0.10 0.10 0.10 0.10 0.10 0.11 0.13 0.13 0.14 0.15 0.17 0.18 0.19 0.19 0.21 0.21 0.19 0.19
0.00 0.00 0.00 0.00 0.00 0.00 0.00 0.01 0.02 0.02 0.02 0.06 0.09 0.16 0.26 0.31 0.38 0.42 0.53 0.59 0.48 0.46 0.51 0.56 0.38 0.24 0.22 0.22 0.18 0.15 0.13 0.13 0.16 0.12 0.10 0.11 0.11 0.15 0.16 0.15 0.15 0.17 0.18 0.25 0.27 0.25 0.24 0.22 0.20
0.00 0.00 0.00 0.00 0.00 0.00 0.00 0.02 0.07 0.04 0.02 0.03 0.07 0.14 0.15 0.18 0.23 0.28 0.36 0.39 0.32 0.41 0.44 0.38 0.35 0.32 0.21 0.15 0.14 0.12 0.14 0.14 0.13 0.11 0.10 0.10 0.09 0.12 0.14 0.13 0.12 0.12 0.13 0.18 0.22 0.24 0.25 0.26 0.25
0.00 0.00 0.00 0.00 0.00 0.00 0.00 0.01 0.03 0.03 0.05 0.09 0.12 0.17 0.13 0.12 0.16 0.22 0.21 0.28 0.33 0.41 0.36 0.27 0.25 0.30 0.23 0.15 0.12 0.12 0.13 0.09 0.08 0.08 0.08 0.07 0.06 0.10 0.13 0.12 0.11 0.10 0.10 0.13 0.16 0.19 0.20 0.28 0.30
0.00 0.00 0.00 0.01 0.00 0.00 0.00 0.01 0.02 0.04 0.06 0.12 0.16 0.16 0.12 0.09 0.07 0.08 0.10 0.17 0.24 0.28 0.25 0.20 0.19 0.18 0.17 0.14 0.13 0.10 0.08 0.07 0.07 0.07 0.08 0.07 0.05 0.05 0.06 0.07 0.08 0.09 0.10 0.11 0.10 0.13 0.15 0.18 0.22
0.00 0.00 0.01 0.01 0.00 0.00 0.00 0.01 0.03 0.05 0.09 0.10 0.10 0.10 0.06 0.05 0.04 0.02 0.04 0.10 0.10 0.11 0.13 0.12 0.13 0.09 0.08 0.09 0.08 0.08 0.06 0.06 0.07 0.07 0.07 0.07 0.04 0.04 0.03 0.04 0.04 0.05 0.06 0.07 0.08 0.08 0.10 0.11 0.13
0.00 0.00 0.00 0.00 0.01 0.00 0.01 0.02 0.04 0.07 0.09 0.10 0.09 0.07 0.03 0.02 0.02 0.01 0.02 0.03 0.04 0.05 0.06 0.06 0.05 0.05 0.05 0.06 0.05 0.05 0.05 0.05 0.05 0.05 0.06 0.05 0.04 0.03 0.03 0.02 0.03 0.05 0.05 0.06 0.07 0.08 0.09 0.10 0.13
0.00 0.00 0.00 0.00 0.00 0.01 0.02 0.04 0.06 0.09 0.09 0.12 0.15 0.11 0.04 0.02 0.02 0.01 0.01 0.01 0.02 0.02 0.03 0.02 0.03 0.03 0.03 0.03 0.04 0.04 0.05 0.05 0.04 0.04 0.04 0.04 0.04 0.03 0.02 0.02 0.03 0.05 0.08 0.08 0.08 0.09 0.11 0.11 0.13
0.00 0.00 0.00 0.00 0.00 0.01 0.02 0.04 0.08 0.10 0.08 0.12 0.15 0.12 0.06 0.03 0.02 0.02 0.01 0.01 0.01 0.01 0.01 0.01 0.01 0.01 0.01 0.01 0.02 0.03 0.04 0.03 0.04 0.05 0.04 0.04 0.05 0.04 0.03 0.02 0.02 0.02 0.03 0.04 0.06 0.08 0.10 0.11 0.12
0.00 0.00 0.00 0.00 0.01 0.01 0.02 0.04 0.07 0.11 0.12 0.15 0.17 0.16 0.13 0.07 0.03 0.02 0.01 0.01 0.00 0.01 0.01 0.01 0.01 0.01 0.01 0.01 0.01 0.01 0.02 0.02 0.04 0.04 0.05 0.05 0.04 0.03 0.02 0.02 0.01 0.02 0.03 0.03 0.03 0.04 0.07 0.11 0.13
0.00 0.00 0.00 0.00 0.01 0.02 0.03 0.06 0.08 0.11 0.14 0.22 0.25 0.21 0.16 0.09 0.04 0.01 0.00 0.00 0.00 0.00 0.00 0.00 0.00 0.00 0.00 0.00 0.00 0.00 0.01 0.02 0.02 0.03 0.04 0.03 0.03 0.02 0.01 0.01 0.01 0.01 0.02 0.03 0.03 0.02 0.03 0.07 0.11
0.00 0.00 0.01 0.02 0.02 0.03 0.02 0.03 0.05 0.09 0.12 0.14 0.17 0.17 0.16 0.08 0.03 0.01 0.00 0.00 0.00 0.00 0.00 0.00 0.00 0.00 0.00 0.00 0.00 0.00 0.00 0.01 0.01 0.02 0.02 0.02 0.02 0.02 0.02 0.02 0.02 0.03 0.03 0.02 0.02 0.02 0.02 0.04 0.07
0.00 0.00 0.02 0.03 0.04 0.03 0.03 0.05 0.11 0.16 0.15 0.15 0.16 0.12 0.08 0.04 0.01 0.00 0.00 0.00 0.00 0.00 0.00 0.00 0.00 0.00 0.00 0.00 0.00 0.00 0.00 0.00 0.01 0.01 0.01 0.01 0.01 0.01 0.02 0.02 0.01 0.02 0.03 0.03 0.02 0.02 0.02 0.03 0.04
0.00 0.01 0.02 0.02 0.03 0.05 0.08 0.10 0.19 0.23 0.21 0.19 0.16 0.10 0.06 0.03 0.01 0.01 0.00 0.00 0.00 0.00 0.00 0.00 0.00 0.00 0.00 0.00 0.00 0.00 0.00 0.00 0.00 0.01 0.00 0.00 0.00 0.00 0.00 0.01 0.01 0.01 0.01 0.03 0.03 0.03 0.03 0.03 0.05
0.00 0.01 0.01 0.02 0.04 0.07 0.10 0.13 0.25 0.36 0.26 0.18 0.11 0.06 0.04 0.03 0.01 0.00 0.00 0.00 0.00 0.00 0.00 0.00 0.00 0.00 0.00 0.00 0.00 0.00 0.00 0.01 0.01 0.01 0.00 0.00 0.00 0.00 0.00 0.00 0.00 0.00 0.01 0.01 0.02 0.03 0.03 0.03 0.04
0.01 0.02 0.02 0.02 0.04 0.06 0.09 0.14 0.20 0.27 0.31 0.26 0.15 0.09 0.06 0.04 0.01 0.00 0.00 0.00 0.00 0.00 0.00 0.00 0.00 0.00 0.00 0.00 0.00 0.00 0.02 0.02 0.02 0.02 0.01 0.00 0.00 0.00 0.00 0.00 0.00 0.00 0.01 0.01 0.01 0.02 0.03 0.04 0.04
0.02 0.02 0.03 0.03 0.04 0.05 0.07 0.12 0.10 0.16 0.29 0.33 0.27 0.20 0.11 0.04 0.01 0.00 0.00 0.00 0.00 0.00 0.00 0.00 0.00 0.00 0.00 0.00 0.00 0.01 0.02 0.02 0.02 0.02 0.01 0.00 0.00 0.00 0.00 0.00 0.00 0.00 0.00 0.00 0.01 0.02 0.02 0.03 0.03
MSLP
1011.04 1012.07 1013.29 1014.45 1015.32 1015.74 1015.61 1014.97 1013.95 1012.74 1011.59 1010.68 1010.11 1009.93 1010.05 1010.34 1010.67 1010.90 1010.96 1010.87 1010.69 1010.51 1010.44 1010.55 1010.86 1011.33 1011.88 1012.41 1012.86 1013.18 1013.36 1013.46 1013.55 1013.68 1013.89 1014.21 1014.60 1015.02 1015.41 1015.72 1015.95 1016.09 1016.17 1016.24 1016.32 1016.44 1016.59 1016.77 1016.96
1011.57 1012.80 1014.09 1015.18 1015.87 1016.01 1015.57 1014.62 1013.34 1011.97 1010.72 1009.79 1009.25 1009.10 1009.26 1009.57 1009.90 1010.13 1010.22 1010.18 1010.09 1010.06 1010.15 1010.44 1010.91 1011.51 1012.15 1012.73 1013.20 1013.51 1013.70 1013.80 1013.89 1014.04 1014.27 1014.58 1014.96 1015.33 1015.67 1015.91 1016.08 1016.17 1016.22 1016.28 1016.38 1016.52 1016.69 1016.89 1017.07
1012.31 1013.65 1014.90 1015.84 1016.27 1016.09 1015.32 1014.10 1012.61 1011.13 1009.86 1008.98 1008.52 1008.46 1008.67 1009.01 1009.34 1009.56 1009.65 1009.63 1009.61 1009.67 1009.90 1010.33 1010.93 1011.63 1012.34 1012.97 1013.46 1013.78 1013.97 1014.09 1014.20 1014.36 1014.60 1014.91 1015.26 1015.59 1015.87 1016.06 1016.17 1016.24 1016.29 1016.36 1016.49 1016.66 1016.87 1017.08 1017.28
1013.18 1014.52 1015.66 1016.37 1016.49 1015.98 1014.91 1013.45 1011.83 1010.32 1009.11 1008.34 1008.02 1008.07 1008.37 1008.75 1009.08 1009.28 1009.34 1009.32 1009.33 1009.45 1009.76 1010.28 1010.97 1011.73 1012.49 1013.14 1013.63 1013.96 1014.17 1014.30 1014.44 1014.63 1014.88 1015.19 1015.51 1015.80 1016.03 1016.18 1016.27 1016.33 1016.41 1016.52 1016.70 1016.92 1017.16 1017.40 1017.59
1014.04 1015.31 1016.25 1016.67 1016.48 1015.66 1014.34 1012.72 1011.06 1009.61 1008.54 1007.95 1007.81 1008.01 1008.41 1008.83 1009.16 1009.32 1009.35 1009.32 1009.33 1009.47 1009.82 1010.38 1011.09 1011.87 1012.62 1013.26 1013.74 1014.07 1014.28 1014.44 1014.61 1014.82 1015.10 1015.41 1015.71 1015.98 1016.19 1016.32 1016.40 1016.48 1016.59 1016.76 1017.00 1017.27 1017.56 1017.81 1018.01
1014.76 1015.87 1016.56 1016.68 1016.19 1015.12 1013.63 1011.95 1010.35 1009.04 1008.19 1007.82 1007.89 1008.26 1008.77 1009.24 1009.57 1009.71 1009.71 1009.65 1009.64 1009.79 1010.13 1010.68 1011.37 1012.11 1012.81 1013.40 1013.83 1014.13 1014.34 1014.52 1014.71 1014.96 1015.26 1015.58 1015.89 1016.14 1016.34 1016.46 1016.56 1016.67 1016.83 1017.05 1017.34 1017.67 1017.99 1018.26 1018.44
1015.20 1016.08 1016.50 1016.34 1015.60 1014.36 1012.81 1011.18 1009.72 1008.65 1008.05 1007.95 1008.24 1008.78 1009.39 1009.91 1010.25 1010.38 1010.36 1010.29 1010.27 1010.40 1010.72 1011.23 1011.85 1012.50 1013.10 1013.59 1013.95 1014.20 1014.39 1014.56 1014.78 1015.06 1015.38 1015.72 1016.03 1016.28 1016.47 1016.60 1016.71 1016.85 1017.05 1017.32 1017.66 1018.02 1018.36 1018.64 1018.82
1015.27 1015.91 1016.07 1015.67 1014.75 1013.44 1011.92 1010.44 1009.21 1008.42 1008.11 1008.27 1008.77 1009.46 1010.16 1010.73 1011.08 1011.22 1011.21 1011.14 1011.14 1011.26 1011.55 1011.98 1012.51 1013.04 1013.51 1013.88 1014.13 1014.30 1014.44 1014.61 1014.83 1015.13 1015.47 1015.82 1016.14 1016.39 1016.57 1016.70 1016.82 1016.97 1017.20 1017.50 1017.86 1018.25 1018.60 1018.87 1019.05
1015.02 1015.41 1015.33 1014.75 1013.74 1012.44 1011.05 1009.79 1008.84 1008.35 1008.33 1008.72 1009.41 1010.21 1010.97 1011.57 1011.95 1012.11 1012.13 1012.10 1012.12 1012.25 1012.51 1012.88 1013.30 1013.69 1014.01 1014.23 1014.36 1014.43 1014.52 1014.66 1014.88 1015.18 1015.53 1015.89 1016.20 1016.44 1016.61 1016.73 1016.85 1017.00 1017.23 1017.55 1017.92 1018.31 1018.66 1018.93 1019.10
1014.52 1014.69 1014.41 1013.72 1012.69 1011.48 1010.28 1009.28 1008.63 1008.43 1008.67 1009.26 1010.07 1010.94 1011.73 1012.35 1012.73 1012.92 1012.99 1013.01 1013.08 1013.23 1013.48 1013.79 1014.10 1014.36 1014.52 1014.59 1014.59 1014.57 1014.59 1014.69 1014.90 1015.20 1015.55 1015.90 1016.20 1016.43 1016.58 1016.69 1016.79 1016.94 1017.16 1017.46 1017.83 1018.21 1018.56 1018.83 1019.01
1013.95 1013.92 1013.50 1012.73 1011.74 1010.67 1009.69 1008.97 1008.61 1008.67 1009.10 1009.83 1010.71 1011.60 1012.38 1012.97 1013.36 1013.58 1013.69 1013.78 1013.90 1014.08 1014.32 1014.57 1014.79 1014.92 1014.95 1014.88 1014.77 1014.66 1014.61 1014.68 1014.86 1015.15 1015.49 1015.84 1016.13 1016.34 1016.48 1016.57 1016.67 1016.80 1017.01 1017.30 1017.65 1018.02 1018.36 1018.64 1018.82
1013.47 1013.27 1012.73 1011.95 1011.03 1010.12 1009.37 1008.90 1008.79 1009.05 1009.63 1010.42 1011.30 1012.15 1012.87 1013.42 1013.79 1014.02 1014.17 1014.31 1014.48 1014.69 1014.92 1015.12 1015.25 1015.28 1015.19 1015.02 1014.81 1014.63 1014.54 1014.58 1014.75 1015.03 1015.37 1015.70 1015.98 1016.19 1016.33 1016.42 1016.51 1016.64 1016.84 1017.12 1017.46 1017.82 1018.15 1018.43 1018.63
1013.17 1012.84 1012.23 1011.45 1010.62 1009.88 1009.34 1009.09 1009.17 1009.57 1010.21 1011.00 1011.83 1012.60 1013.23 1013.70 1014.03 1014.25 1014.43 1014.60 1014.80 1015.01 1015.22 1015.37 1015.43 1015.37 1015.19 1014.95 1014.68 1014.46 1014.35 1014.38 1014.55 1014.82 1015.15 1015.49 1015.77 1015.99 1016.14 1016.25 1016.36 1016.51 1016.72 1017.00 1017.32 1017.67 1018.00 1018.28 1018.49
1013.11 1012.67 1012.01 1011.26 1010.53 1009.93 1009.57 1009.49 1009.70 1010.18 1010.84 1011.58 1012.32 1012.97 1013.49 1013.87 1014.14 1014.33 1014.50 1014.67 1014.86 1015.05 1015.22 1015.32 1015.30 1015.17 1014.94 1014.66 1014.37 1014.15 1014.04 1014.08 1014.25 1014.54 1014.87 1015.22 1015.52 1015.76 1015.94 1016.09 1016.24 1016.43 1016.66 1016.95 1017.28 1017.62 1017.94 1018.22 1018.44
1013.22 1012.70 1012.02 1011.30 1010.67 1010.21 1009.99 1010.04 1010.34 1010.85 1011.48 1012.14 1012.77 1013.29 1013.70 1013.99 1014.19 1014.34 1014.47 1014.61 1014.77 1014.91 1015.01 1015.04 1014.96 1014.77 1014.51 1014.21 1013.93 1013.73 1013.65 1013.72 1013.91 1014.21 1014.56 1014.91 1015.24 1015.52 1015.75 1015.96 1016.16 1016.40 1016.68 1016.99 1017.33 1017.66 1017.97 1018.24 1018.46
1013.38 1012.80 1012.13 1011.48 1010.95 1010.62 1010.52 1010.67 1011.02 1011.52 1012.10 1012.67 1013.19 1013.60 1013.91 1014.12 1014.26 1014.36 1014.45 1014.54 1014.63 1014.70 1014.72 1014.66 1014.51 1014.28 1014.01 1013.72 1013.47 1013.31 1013.27 1013.37 1013.59 1013.90 1014.25 1014.62 1014.97 1015.28 1015.57 1015.84 1016.11 1016.40 1016.72 1017.06 1017.40 1017.73 1018.03 1018.28 1018.49
1013.46 1012.87 1012.25 1011.69 1011.29 1011.08 1011.10 1011.32 1011.70 1012.18 1012.69 1013.17 1013.59 1013.91 1014.15 1014.30 1014.40 1014.46 1014.51 1014.55 1014.56 1014.54 1014.47 1014.32 1014.11 1013.84 1013.56 1013.29 1013.08 1012.98 1012.98 1013.11 1013.35 1013.66 1014.01 1014.38 1014.74 1015.08 1015.41 1015.73 1016.06 1016.40 1016.76 1017.12 1017.46 1017.78 1018.05 1018.27 1018.47
1013.38 1012.83 1012.31 1011.89 1011.63 1011.57 1011.69 1011.97 1012.36 1012.80 1013.25 1013.64 1013.98 1014.23 1014.42 1014.55 1014.64 1014.69 1014.71 1014.70 1014.65 1014.54 1014.38 1014.15 1013.87 1013.57 1013.28 1013.04 1012.88 1012.81 1012.86 1013.02 1013.26 1013.55 1013.89 1014.24 1014.58 1014.93 1015.28 1015.64 1016.01 1016.38 1016.76 1017.12 1017.46 1017.75 1017.99 1018.18 1018.35
1013.12 1012.67 1012.31 1012.07 1012.00 1012.10 1012.34 1012.67 1013.05 1013.44 1013.80 1014.11 1014.37 1014.57 1014.74 1014.87 1014.97 1015.04 1015.07 1015.04 1014.94 1014.76 1014.52 1014.21 1013.88 1013.55 1013.26 1013.04 1012.91 1012.89 1012.96 1013.12 1013.35 1013.62 1013.92 1014.23 1014.54 1014.87 1015.22 1015.58 1015.96 1016.34 1016.71 1017.06 1017.37 1017.62 1017.82 1017.99 1018.13
1012.75 1012.48 1012.33 1012.33 1012.48 1012.75 1013.09 1013.46 1013.81 1014.12 1014.38 1014.59 1014.77 1014.93 1015.09 1015.24 1015.39 1015.50 1015.56 1015.54 1015.42 1015.20 1014.90 1014.54 1014.16 1013.81 1013.51 1013.31 1013.20 1013.20 1013.29 1013.45 1013.65 1013.88 1014.13 1014.38 1014.64 1014.93 1015.24 1015.58 1015.93 1016.29 1016.64 1016.95 1017.21 1017.42 1017.58 1017.70 1017.82
1012.41 1012.37 1012.49 1012.76 1013.14 1013.58 1014.02 1014.40 1014.70 1014.90 1015.03 1015.11 1015.20 1015.30 1015.45 1015.64 1015.85 1016.03 1016.15 1016.16 1016.06 1015.83 1015.50 1015.11 1014.70 1014.32 1014.02 1013.82 1013.73 1013.74 1013.82 1013.97 1014.14 1014.32 1014.51 1014.70 1014.90 1015.12 1015.38 1015.67 1015.97 1016.28 1016.57 1016.83 1017.03 1017.17 1017.27 1017.35 1017.44
1012.24 1012.48 1012.89 1013.44 1014.06 1014.65 1015.15 1015.51 1015.71 1015.77 1015.74 1015.68 1015.64 1015.69 1015.82 1016.04 1016.31 1016.58 1016.78 1016.86 1016.80 1016.59 1016.26 1015.85 1015.42 1015.03 1014.72 1014.52 1014.43 1014.44 1014.52 1014.64 1014.78 1014.92 1015.05 1015.17 1015.31 1015.46 1015.65 1015.86 1016.09 1016.33 1016.54 1016.71 1016.83 1016.90 1016.93 1016.96 1017.01
1012.36 1012.87 1013.58 1014.38 1015.20 1015.91 1016.43 1016.74 1016.81 1016.70 1016.49 1016.26 1016.09 1016.06 1016.17 1016.42 1016.76 1017.11 1017.40 1017.57 1017.57 1017.41 1017.10 1016.70 1016.27 1015.86 1015.54 1015.33 1015.23 1015.23 1015.30 1015.41 1015.52 1015.62 1015.70 1015.76 1015.83 1015.92 1016.02 1016.15 1016.29 1016.43 1016.54 1016.60 1016.62 1016.60 1016.55 1016.50 1016.50
1012.77 1013.54 1014.49 1015.51 1016.46 1017.24 1017.75 1017.96 1017.89 1017.60 1017.19 1016.79 1016.50 1016.39 1016.48 1016.75 1017.15 1017.59 1017.98 1018.25 1018.33 1018.23 1017.96 1017.58 1017.15 1016.75 1016.42 1016.19 1016.08 1016.06 1016.12 1016.20 1016.29 1016.36 1016.40 1016.42 1016.43 1016.44 1016.47 1016.50 1016.53 1016.55 1016.54 1016.48 1016.38 1016.24 1016.09 1015.96 1015.88
1013.42 1014.38 1015.51 1016.65 1017.68 1018.46 1018.92 1019.01 1018.79 1018.33 1017.76 1017.22 1016.82 1016.64 1016.72 1017.03 1017.49 1018.02 1018.51 1018.87 1019.04 1019.01 1018.79 1018.44 1018.03 1017.63 1017.29 1017.05 1016.92 1016.89 1016.93 1016.99 1017.06 1017.10 1017.11 1017.09 1017.04 1016.98 1016.91 1016.84 1016.75 1016.64 1016.49 1016.29 1016.05 1015.79 1015.52 1015.29 1015.12
1014.18 1015.25 1016.45 1017.64 1018.66 1019.39 1019.75 1019.73 1019.38 1018.78 1018.09 1017.46 1017.00 1016.80 1016.89 1017.23 1017.77 1018.38 1018.96 1019.41 1019.67 1019.71 1019.55 1019.25 1018.86 1018.47 1018.13 1017.88 1017.73 1017.68 1017.69 1017.73 1017.78 1017.79 1017.77 1017.70 1017.60 1017.46 1017.30 1017.11 1016.90 1016.64 1016.34 1015.99 1015.60 1015.20 1014.81 1014.47 1014.21
1014.91 1015.99 1017.16 1018.30 1019.24 1019.87 1020.13 1020.00 1019.55 1018.87 1018.14 1017.48 1017.02 1016.84 1016.97 1017.38 1017.98 1018.67 1019.33 1019.86 1020.19 1020.31 1020.22 1019.96 1019.61 1019.24 1018.91 1018.65 1018.49 1018.41 1018.39 1018.40 1018.42 1018.40 1018.33 1018.22 1018.05 1017.84 1017.58 1017.27 1016.92 1016.52 1016.07 1015.57 1015.04 1014.50 1013.99 1013.54 1013.20
1015.48 1016.48 1017.54 1018.54 1019.34 1019.85 1019.99 1019.79 1019.29 1018.61 1017.90 1017.29 1016.89 1016.79 1016.99 1017.46 1018.13 1018.88 1019.61 1020.20 1020.60 1020.78 1020.75 1020.55 1020.25 1019.91 1019.60 1019.34 1019.16 1019.06 1019.01 1018.99 1018.96 1018.89 1018.78 1018.61 1018.38 1018.08 1017.72 1017.31 1016.83 1016.30 1015.71 1015.07 1014.41 1013.75 1013.14 1012.60 1012.19
1015.85 1016.68 1017.56 1018.37 1019.00 1019.36 1019.41 1019.17 1018.68 1018.07 1017.45 1016.95 1016.68 1016.68 1016.97 1017.52 1018.24 1019.03 1019.78 1020.41 1020.85 1021.08 1021.11 1020.98 1020.73 1020.44 1020.16 1019.92 1019.74 1019.62 1019.54 1019.47 1019.39 1019.28 1019.11 1018.88 1018.57 1018.20 1017.76 1017.25 1016.67 1016.03 1015.33 1014.59 1013.83 1013.09 1012.40 1011.81 1011.36
1016.04 1016.67 1017.32 1017.92 1018.36 1018.58 1018.56 1018.32 1017.90 1017.40 1016.93 1016.60 1016.47 1016.60 1016.98 1017.58 1018.32 1019.12 1019.87 1020.50 1020.96 1021.22 1021.30 1021.23 1021.05 1020.82 1020.58 1020.37 1020.20 1020.07 1019.96 1019.85 1019.72 1019.56 1019.33 1019.04 1018.68 1018.25 1017.74 1017.17 1016.52 1015.80 1015.04 1014.24 1013.43 1012.65 1011.94 1011.33 1010.88
Thickness
5798 5800 5800 5790 5765 5744 5744 5767 5788 5801 5811 5824 5829 5823 5810 5801 5792 5783 5810 5817 5813 5807 5802 5799 5798 5796 5794 5791 5789 5787 5785 5783 5782 5780 5779 5778 5776 5774 5772 5770 5769 5767 5765 5763 5761 5759 5756 5755 5753
5795 5798 5789 5771 5744 5728 5741 5773 5787 5802 5817 5826 5825 5820 5809 5802 5809 5807 5808 5811 5810 5805 5801 5797 5795 5793 5791 5789 5786 5784 5782 5780 5779 5777 5776 5774 5773 5771 5769 5768 5766 5764 5762 5761 5759 5757 5755 5753 5751
5792 5792 5771 5753 5740 5733 5751 5780 5794 5810 5824 5824 5814 5812 5805 5800 5806 5806 5808 5807 5805 5802 5798 5795 5792 5790 5787 5785 5783 5781 5779 5777 5775 5774 5772 5771 5769 5768 5767 5765 5763 5762 5760 5758 5757 5755 5753 5751 5749
5784 5773 5761 5744 5741 5754 5768 5785 5795 5803 5815 5819 5810 5796 5799 5809 5809 5807 5806 5803 5799 5796 5794 5791 5789 5786 5784 5782 5780 5778 5776 5774 5772 5770 5769 5767 5766 5765 5763 5762 5761 5759 5758 5756 5754 5752 5750 5749 5747
5775 5757 5743 5733 5742 5764 5782 5794 5798 5798 5805 5809 5804 5786 5786 5801 5809 5806 5801 5797 5794 5790 5788 5786 5784 5782 5780 5778 5776 5774 5772 5771 5769 5767 5765 5764 5762 5761 5760 5759 5757 5756 5755 5753 5751 5750 5748 5747 5745
5755 5744 5727 5723 5743 5767 5784 5796 5798 5799 5800 5802 5795 5782 5779 5793 5799 5799 5797 5793 5790 5785 5782 5780 5779 5777 5775 5773 5771 5769 5768 5766 5765 5764 5762 5761 5759 5758 5757 5756 5754 5753 5752 5750 5749 5747 5746 5744 5743
5746 5735 5728 5736 5744 5759 5784 5799 5798 5796 5794 5794 5795 5777 5774 5784 5792 5794 5791 5785 5782 5779 5776 5774 5772 5771 5770 5769 5768 5765 5764 5763 5761 5760 5759 5758 5756 5755 5753 5752 5751 5750 5749 5748 5747 5745 5744 5742 5741
5754 5737 5734 5736 5744 5754 5783 5797 5801 5799 5792 5798 5795 5774 5767 5778 5784 5784 5778 5773 5771 5769 5767 5767 5766 5766 5766 5765 5764 5762 5760 5759 5757 5756 5755 5754 5752 5751 5750 5749 5748 5747 5747 5745 5744 5742 5741 5739 5738
5758 5729 5721 5735 5746 5756 5779 5787 5797 5803 5792 5789 5787 5782 5779 5781 5777 5771 5764 5759 5758 5759 5760 5760 5760 5760 5761 5760 5759 5758 5757 5756 5754 5752 5751 5749 5748 5747 5746 5746 5745 5744 5744 5743 5741 5740 5738 5737 5735
5743 5720 5732 5751 5760 5762 5773 5781 5789 5786 5776 5773 5773 5773 5774 5771 5765 5758 5754 5748 5746 5747 5751 5754 5755 5754 5754 5755 5754 5753 5752 5751 5750 5749 5747 5746 5745 5744 5743 5742 5742 5741 5741 5739 5738 5736 5734 5733 5732
5745 5737 5748 5759 5767 5768 5771 5777 5785 5776 5763 5767 5766 5765 5763 5759 5755 5751 5748 5741 5739 5741 5744 5747 5750 5750 5750 5750 5749 5749 5749 5748 5746 5745 5744 5743 5741 5740 5739 5739 5738 5738 5737 5736 5734 5733 5732 5730 5729
5745 5751 5758 5762 5770 5770 5771 5773 5770 5770 5766 5771 5769 5764 5757 5750 5744 5743 5741 5737 5736 5737 5739 5742 5746 5747 5746 5746 5746 5745 5745 5743 5742 5741 5740 5739 5738 5737 5736 5735 5735 5734 5734 5732 5731 5731 5729 5727 5726
5741 5749 5761 5765 5767 5771 5772 5766 5762 5757 5763 5764 5761 5754 5748 5743 5740 5740 5738 5735 5733 5731 5734 5737 5741 5741 5741 5741 5742 5741 5740 5739 5738 5737 5737 5736 5735 5734 5733 5732 5731 5730 5729 5728 5727 5726 5725 5724 5723
5746 5752 5758 5761 5765 5770 5765 5758 5753 5746 5755 5753 5749 5743 5741 5736 5732 5730 5729 5729 5728 5729 5729 5733 5735 5735 5735 5736 5736 5736 5735 5735 5733 5733 5733 5732 5731 5730 5730 5729 5728 5726 5725 5724 5723 5722 5721 5720 5719
5751 5745 5748 5753 5761 5764 5763 5745 5742 5746 5748 5743 5740 5737 5735 5731 5727 5725 5725 5724 5725 5726 5726 5725 5727 5728 5730 5731 5730 5730 5730 5729 5728 5728 5727 5726 5726 5725 5726 5725 5723 5722 5722 5721 5719 5718 5716 5715 5715
5740 5734 5727 5744 5755 5760 5749 5725 5734 5743 5741 5733 5732 5731 5727 5724 5721 5721 5723 5723 5723 5722 5721 5719 5721 5721 5725 5726 5726 5726 5725 5724 5722 5721 5721 5721 5720 5720 5720 5719 5718 5717 5716 5716 5714 5713 5712 5710 5709
5716 5713 5719 5732 5750 5753 5741 5724 5730 5738 5735 5728 5725 5723 5719 5716 5715 5716 5717 5719 5718 5716 5714 5712 5713 5716 5720 5721 5720 5719 5719 5718 5715 5715 5714 5714 5714 5714 5713 5712 5712 5712 5711 5710 5709 5708 5707 5705 5703
5701 5709 5716 5722 5741 5743 5731 5723 5725 5730 5728 5722 5720 5716 5713 5711 5711 5713 5712 5711 5711 5709 5707 5706 5708 5710 5711 5711 5713 5712 5711 5709 5708 5707 5706 5706 5707 5707 5706 5706 5705 5705 5704 5702 5702 5701 5701 5699 5698
5711 5710 5710 5724 5742 5734 5724 5720 5720 5722 5720 5716 5713 5710 5708 5707 5707 5707 5707 5705 5704 5702 5701 5701 5701 5702 5705 5706 5706 5705 5702 5700 5699 5699 5698 5698 5699 5699 5698 5698 5698 5698 5697 5697 5697 5695 5693 5692 5691
5713 5707 5711 5724 5740 5731 5718 5713 5714 5713 5713 5713 5710 5707 5705 5702 5700 5700 5698 5697 5697 5695 5694 5695 5694 5697 5699 5700 5700 5699 5696 5693 5692 5691 5690 5690 5690 5690 5690 5690 5690 5690 5690 5690 5690 5689 5687 5685 5685
5713 5711 5714 5719 5729 5730 5718 5699 5699 5703 5706 5705 5704 5703 5702 5699 5695 5692 5691 5689 5688 5687 5687 5687 5687 5689 5691 5693 5693 5691 5688 5685 5683 5681 5681 5681 5681 5681 5681 5682 5682 5682 5683 5682 5683 5683 5681 5679 5679
5706 5725 5727 5725 5711 5698 5708 5680 5689 5695 5695 5696 5695 5694 5693 5691 5687 5684 5682 5681 5680 5678 5679 5679 5679 5680 5681 5683 5682 5681 5678 5675 5672 5672 5671 5672 5672 5673 5673 5674 5674 5675 5675 5675 5676 5676 5676 5674 5672
5720 5731 5727 5721 5706 5692 5692 5679 5678 5690 5687 5688 5690 5690 5686 5682 5679 5676 5674 5672 5672 5671 5670 5670 5670 5671 5671 5672 5672 5671 5668 5666 5664 5664 5663 5663 5663 5664 5664 5665 5666 5666 5666 5667 5668 5669 5669 5669 5668
5733 5722 5712 5699 5687 5670 5680 5675 5670 5680 5689 5687 5686 5684 5680 5675 5672 5668 5666 5664 5663 5662 5661 5660 5660 5660 5661 5661 5661 5660 5658 5657 5655 5654 5652 5652 5653 5654 5655 5656 5656 5656 5657 5658 5660 5661 5661 5662 5662
5721 5693 5670 5666 5656 5660 5678 5674 5670 5686 5694 5691 5683 5678 5674 5670 5666 5663 5659 5656 5654 5652 5650 5649 5649 5649 5649 5649 5649 5648 5647 5646 5645 5644 5643 5643 5643 5644 5644 5646 5647 5648 5649 5650 5652 5653 5653 5654 5654
5708 5693 5665 5654 5651 5656 5668 5665 5672 5689 5693 5690 5682 5674 5667 5662 5659 5656 5651 5648 5645 5643 5640 5639 5638 5637 5637 5637 5637 5637 5636 5636 5635 5634 5634 5634 5633 5634 5635 5636 5637 5639 5640 5641 5644 5645 5645 5646 5646
5704 5690 5688 5667 5660 5650 5655 5665 5674 5682 5680 5677 5672 5666 5660 5656 5653 5648 5643 5639 5636 5633 5630 5629 5627 5625 5625 5625 5625 5625 5625 5625 5625 5624 5625 5625 5624 5625 5626 5627 5629 5630 5631 5633 5634 5635 5636 5637 5637
5707 5697 5676 5662 5648 5642 5649 5655 5660 5668 5668 5667 5663 5659 5654 5650 5646 5641 5636 5631 5627 5624 5621 5619 5617 5615 5614 5614 5614 5614 5613 5614 5615 5615 5615 5615 5615 5616 5617 5618 5619 5621 5622 5624 5625 5626 5627 5628 5628
5692 5688 5675 5660 5655 5643 5636 5647 5675 5671 5666 5662 5659 5655 5650 5645 5640 5635 5630 5625 5620 5616 5612 5609 5607 5605 5604 5603 5603 5603 5603 5604 5604 5604 5604 5605 5605 5606 5607 5608 5609 5611 5612 5613 5615 5616 5617 5618 5618
5695 5687 5675 5658 5653 5652 5642 5648 5678 5673 5667 5662 5656 5651 5645 5640 5635 5629 5623 5618 5613 5608 5604 5601 5598 5596 5595 5594 5593 5592 5593 5593 5593 5593 5594 5595 5595 5596 5597 5598 5599 5600 5602 5603 5604 5605 5606 5607 5607